Time,TemperatureF,DewpointF,PressureIn,WindDirection,WindDirectionDegrees,WindSpeedMPH,WindSpeedGustMPH,Humidity,HourlyPrecipIn,Conditions,Clouds,dailyrainin,SoftwareType,DateUTC
2017-07-25 00:05:00,79.7,76.5,30.01,South,173,0.0,0.0,90,0.00,,,0.00,Wunderground v.1.15,2017-07-25 05:05:00,
2017-07-25 00:15:00,79.6,76.4,30.01,SSE,149,0.0,0.0,90,0.00,,,0.00,Wunderground v.1.15,2017-07-25 05:15:00,
2017-07-25 00:25:00,79.5,76.6,30.01,SSE,167,0.0,0.0,91,0.00,,,0.00,Wunderground v.1.15,2017-07-25 05:25:00,
2017-07-25 00:35:00,79.5,76.6,30.01,SE,141,0.0,0.0,91,0.00,,,0.00,Wunderground v.1.15,2017-07-25 05:35:00,
2017-07-25 00:45:00,79.5,76.6,30.01,SSW,197,0.0,0.0,91,0.00,,,0.00,Wunderground v.1.15,2017-07-25 05:45:00,
2017-07-25 00:55:00,79.3,76.4,30.02,SSE,165,0.0,0.0,91,0.00,,,0.00,Wunderground v.1.15,2017-07-25 05:55:00,
2017-07-25 01:05:00,79.2,76.3,30.02,SE,143,0.0,0.0,91,0.00,,,0.00,Wunderground v.1.15,2017-07-25 06:05:00,
2017-07-25 01:10:00,79.2,76.3,30.02,SSW,193,0.0,0.0,91,0.00,,,0.00,Wunderground v.1.15,2017-07-25 06:10:00,
2017-07-25 01:20:00,79.2,76.7,30.02,SSW,208,0.0,0.0,92,0.00,,,0.00,Wunderground v.1.15,2017-07-25 06:20:00,
2017-07-25 01:29:00,79.1,76.6,30.02,SSW,203,0.0,0.0,92,0.00,,,0.00,Wunderground v.1.15,2017-07-25 06:29:00,
2017-07-25 01:35:00,79.1,76.6,30.02,SSE,152,0.0,0.0,92,0.00,,,0.00,Wunderground v.1.15,2017-07-25 06:35:00,
2017-07-25 01:45:00,79.1,76.6,30.02,SSE,153,0.0,0.0,92,0.00,,,0.00,Wunderground v.1.15,2017-07-25 06:45:00,
2017-07-25 01:54:00,79.0,76.5,30.02,SSE,150,0.0,0.0,92,0.00,,,0.00,Wunderground v.1.15,2017-07-25 06:54:00,
2017-07-25 02:00:00,79.1,76.6,30.02,ESE,104,0.0,0.0,92,0.00,,,0.00,Wunderground v.1.15,2017-07-25 07:00:00,
2017-07-25 02:10:00,79.3,76.4,30.02,SSE,156,0.0,0.0,91,0.00,,,0.00,Wunderground v.1.15,2017-07-25 07:10:00,
2017-07-25 02:20:00,79.3,76.4,30.02,SSE,149,0.0,0.0,91,0.00,,,0.00,Wunderground v.1.15,2017-07-25 07:20:00,
2017-07-25 02:25:00,79.3,76.4,30.02,SE,135,0.0,0.0,91,0.00,,,0.00,Wunderground v.1.15,2017-07-25 07:25:00,
2017-07-25 02:35:00,79.3,76.8,30.02,SE,134,0.0,0.0,92,0.00,,,0.00,Wunderground v.1.15,2017-07-25 07:35:00,
2017-07-25 02:45:00,79.2,76.7,30.02,SE,139,0.0,0.0,92,0.00,,,0.00,Wunderground v.1.15,2017-07-25 07:45:00,
2017-07-25 02:55:00,79.0,76.5,30.02,SE,138,0.0,0.0,92,0.00,,,0.00,Wunderground v.1.15,2017-07-25 07:55:00,
2017-07-25 03:04:00,79.0,76.5,30.02,ESE,122,0.0,0.0,92,0.00,,,0.00,Wunderground v.1.15,2017-07-25 08:04:00,
2017-07-25 03:10:00,79.1,76.6,30.02,SE,133,0.0,0.0,92,0.00,,,0.00,Wunderground v.1.15,2017-07-25 08:10:00,
2017-07-25 03:20:00,79.0,76.5,30.02,SSW,199,0.0,0.0,92,0.00,,,0.00,Wunderground v.1.15,2017-07-25 08:20:00,
2017-07-25 03:30:00,78.9,76.4,30.02,South,189,0.0,0.0,92,0.00,,,0.00,Wunderground v.1.15,2017-07-25 08:30:00,
2017-07-25 03:40:00,79.0,76.5,30.02,SSE,148,0.0,0.0,92,0.00,,,0.00,Wunderground v.1.15,2017-07-25 08:40:00,
2017-07-25 03:50:00,78.9,76.4,30.02,SSE,160,0.0,0.0,92,0.00,,,0.00,Wunderground v.1.15,2017-07-25 08:50:00,
2017-07-25 04:00:00,78.9,76.4,30.02,SSE,167,0.0,0.0,92,0.00,,,0.00,Wunderground v.1.15,2017-07-25 09:00:00,
2017-07-25 04:10:00,78.9,76.4,30.02,SSE,150,0.0,0.0,92,0.00,,,0.00,Wunderground v.1.15,2017-07-25 09:10:00,
2017-07-25 04:15:00,78.9,76.4,30.02,SSE,165,0.0,0.0,92,0.00,,,0.00,Wunderground v.1.15,2017-07-25 09:15:00,
2017-07-25 04:25:00,78.9,76.4,30.02,SSE,164,0.0,0.0,92,0.00,,,0.00,Wunderground v.1.15,2017-07-25 09:25:00,
2017-07-25 04:35:00,79.0,76.5,30.03,SSW,194,0.0,0.0,92,0.00,,,0.00,Wunderground v.1.15,2017-07-25 09:35:00,
2017-07-25 04:45:00,78.8,76.3,30.03,SSE,152,0.0,0.0,92,0.00,,,0.00,Wunderground v.1.15,2017-07-25 09:45:00,
2017-07-25 04:55:00,78.7,76.2,30.03,SSE,148,0.0,0.0,92,0.00,,,0.00,Wunderground v.1.15,2017-07-25 09:55:00,
2017-07-25 05:00:00,78.7,76.2,30.03,SSE,148,0.0,0.0,92,0.00,,,0.00,Wunderground v.1.15,2017-07-25 10:00:00,
2017-07-25 05:10:00,78.6,76.1,30.03,South,176,0.0,0.0,92,0.00,,,0.00,Wunderground v.1.15,2017-07-25 10:10:00,